Погода в Заозерном

Россия / Кемеровская область (Кузбасс)     55°53′26″N   84°43′14″E
темп.,
°C
ветер,
м/с
пор.,
м/с
влажн.,
%
обл.,
%
осадки,
мм/ч
давл.,
гПа
погр.,
м
12 мая, ср
ср1201:00+12с5115486 0.0 1018354
04:00+8с48705 0.0 1017143
07:00+9с36726 0.0 1018148
10:00+16с45461 0.0 1017555
13:00+20ссв322926 0.0 10152938
16:00+21с322792 0.0 10142672
19:00+19св233368 0.0 10141101
22:00+14ю335039 0.0 101546
13 мая, чт
чт1301:00+12юз225428 0.0 101418
04:00+10ююз22605 0.0 101310
07:00+11зюз11585 0.0 101454
10:00+16зсз1141100 0.0 1013595
13:00+19з233140 0.0 10121855
16:00+19з553198 0.0 10112475
19:00+15сз5761100 0.0 1013827
22:00+11ссз4677100 0.3 1014626
14 мая, пт
пт1401:00+11ссз277593 0.3 1014543
04:00+9сз497244 0.1 1015391
07:00+7ссз5107376 0.1 1016464
10:00+8ссз687278 0.0 1018969
13:00+12ссз79335 0.0 10191713
16:00+13ссз692798 0.0 10191947
19:00+13сз5828100 0.0 10201808
22:00+9зсз343867 0.0 102257
15 мая, сб
сб1501:00+9з2443100 0.0 1022105
04:00+9юз41049100 0.1 1021324
07:00+10юз6156868 0.1 1020524
10:00+15зюз8124778 0.1 1018745
13:00+21зюз81142100 0.5 10161542
16:00+23з71040100 0.0 10152780
19:00+15юз61282100 1.1 1015333
22:00+16юз61480100 1.1 1014298
16 мая, вс
вс1601:00+14ююз3791100 4.1 1014174
04:00+12зюз38928 0.0 1013152
07:00+14ююз388850 0.0 1013248
10:00+20юз696497 0.0 1010692
13:00+24з8124548 0.0 10091914
16:00+25з6114097 0.0 10072751
19:00+15сз41089100 16.4 1008589
22:00+14сз3893100 0.3 1011357